Location: Dillon
(41.1766°N, 107.0923°W)
Time: 21:30:39
(UTC+00:00)

DOVE 4 - Visible Passes

Search period start: 28 June 2022 00:00
Search period end: 08 July 2022 00:00
Orbit: 586 x 798 km, 97.8° (Epoch: 24 June)

Date Brightness Start Highest point End Pass type
(mag) Time Alt. Az. Time Alt. Az. Time Alt. Az.
28 Jun ? 05:41:07 10° NE 05:44:28 20° E 05:44:28 20° E visible
28 Jun ? 07:17:44 10° N 07:22:28 48° WNW 07:23:09 45° W visible
29 Jun ? 06:19:49 10° NNE 06:24:37 47° E 06:24:37 47° E visible
29 Jun ? 07:58:11 10° NNW 08:01:52 21° WNW 08:03:17 19° W visible
30 Jun ? 05:23:54 10° ENE 05:26:04 13° E 05:26:04 13° E visible
30 Jun ? 06:59:20 10° N 07:04:18 72° WNW 07:04:45 67° WSW visible
01 Jul ? 06:01:49 10° NNE 06:06:12 32° E 06:06:12 32° E visible
01 Jul ? 07:39:26 10° N 07:43:48 31° WNW 07:44:52 28° W visible
02 Jul ? 06:41:02 10° NNE 06:46:06 78° ESE 06:46:19 76° SE visible
02 Jul ? 08:20:31 10° NNW 08:23:04 14° WNW 08:25:00 12° W visible
03 Jul ? 05:44:01 10° NE 05:47:46 22° E 05:47:46 22° E visible
03 Jul ? 07:20:52 10° N 07:25:40 45° WNW 07:26:26 42° W visible
04 Jul ? 06:22:51 10° NNE 06:27:51 53° E 06:27:52 53° E visible
04 Jul ? 08:01:22 10° NNW 08:05:01 20° WNW 08:06:33 18° W visible
05 Jul ? 05:26:37 10° NE 05:29:18 15° E 05:29:18 15° E visible
05 Jul ? 07:02:25 10° N 07:07:30 66° WNW 07:07:58 62° WSW visible
06 Jul ? 06:04:48 10° NNE 06:09:24 36° E 06:09:24 36° E visible
06 Jul ? 07:42:34 10° N 07:46:56 29° WNW 07:48:04 26° W visible
07 Jul ? 06:44:05 10° NNE 06:49:17 85° ESE 06:49:29 81° SSE visible
07 Jul ? 08:23:47 10° NNW 08:26:09 13° WNW 08:28:10 11° W visible
